TA2NC-13 Weather Reports


time (UTC)temp
C
wind
direction
speed
KPH
gust
KPH
rain 1hr
cm
rain 24hr
cm
rain mn
cm
humidity
%
barometer
mb
20260507021000 3 207 0.0 3.2 0.00 0.00 0.00 82 1016.0
20260507020000 3 11 3.2 3.2 0.00 0.00 0.00 82 1016.0
20260507015000 4 177 0.0 0.0 0.00 0.00 0.00 81 1016.0
20260507014000 4 219 0.0 0.0 0.00 0.00 0.00 82 1016.0
20260507013000 4 157 0.0 1.6 0.00 0.00 0.00 81 1016.0
20260507012000 4 196 0.0 0.0 0.00 0.00 0.00 82 1016.0
20260507011000 4 182 0.0 3.2 0.00 0.00 0.00 80 1016.0
20260507010000 4 229 0.0 1.6 0.00 0.00 0.00 80 1016.0
20260507005000 4 229 3.2 6.4 0.00 0.00 0.00 81 1016.0
20260507004000 4 184 0.0 4.8 0.00 0.00 0.00 81 1016.0
20260507003000 4 107 0.0 1.6 0.00 0.00 0.00 80 1016.0
20260507002000 4 279 0.0 1.6 0.00 0.00 0.00 81 1016.0
20260507001000 4 16 1.6 3.2 0.00 0.00 0.00 81 1016.0
20260507000000 4 193 0.0 0.0 0.00 0.00 0.00 81 1016.0
20260506235000 4 317 0.0 1.6 0.00 0.00 0.00 81 1016.0
20260506234000 4 307 0.0 0.0 0.00 0.00 0.00 81 1016.0
20260506233000 4 71 0.0 4.8 0.00 0.00 0.00 81 1016.0
20260506232000 4 33 1.6 3.2 0.00 0.00 0.00 81 1016.0
20260506231000 4 356 3.2 3.2 0.00 0.00 0.00 81 1016.0
20260506230000 4 317 0.0 3.2 0.00 0.00 0.00 81 1016.0
20260506225000 4 302 0.0 3.2 0.00 0.00 0.00 81 1016.0
20260506224000 4 19 1.6 3.2 0.00 0.00 0.00 80 1016.0
20260506223000 5 3 0.0 0.0 0.00 0.00 0.00 81 1016.0
20260506222000 5 38 0.0 1.6 0.00 0.00 0.00 80 1016.0
20260506221001 5 247 0.0 0.0 0.00 0.00 0.00 80 1016.0
20260506220000 5 247 0.0 0.0 0.00 0.00 0.00 80 1016.0
20260506215000 5 114 1.6 3.2 0.00 0.00 0.00 80 1016.0
20260506214000 5 21 1.6 1.6 0.00 0.00 0.00 79 1016.0
20260506213002 5 247 0.0 1.6 0.00 0.00 0.00 79 1016.0
20260506212000 5 182 0.0 0.0 0.00 0.00 0.00 78 1016.0
20260506211000 5 205 0.0 0.0 0.00 0.00 0.00 79 1016.0
20260506210000 5 225 0.0 0.0 0.00 0.00 0.00 79 1016.0
20260506205000 5 150 0.0 0.0 0.00 0.00 0.00 77 1016.0
20260506204000 5 260 1.6 4.8 0.00 0.00 0.00 78 1016.0
20260506203000 5 19 3.2 4.8 0.00 0.00 0.00 77 1016.0
20260506202000 5 137 1.6 3.2 0.00 0.00 0.00 76 1016.0
20260506201000 6 22 3.2 4.8 0.00 0.00 0.00 77 1016.0
20260506200000 6 356 0.0 0.0 0.00 0.00 0.00 78 1016.0
20260506195000 6 156 0.0 3.2 0.00 0.00 0.00 77 1016.0
20260506194000 6 33 3.2 4.8 0.00 0.00 0.00 76 1016.0
20260506193000 6 166 0.0 3.2 0.00 0.00 0.00 77 1016.0
20260506192000 6 349 1.6 3.2 0.00 0.00 0.00 75 1016.0
20260506191000 6 253 0.0 3.2 0.00 0.00 0.00 75 1016.0
20260506190000 6 339 0.0 0.0 0.00 0.00 0.00 75 1016.0
20260506185000 6 170 0.0 0.0 0.00 0.00 0.00 72 1016.0
20260506184000 7 0 0.0 0.0 0.00 0.00 0.00 73 1016.0
20260506183000 7 0 0.0 0.0 0.00 0.00 0.00 72 1016.0
20260506182000 7 0 0.0 0.0 0.00 0.00 0.00 71 1016.0
20260506181000 7 0 0.0 0.0 0.00 0.00 0.00 69 1016.0
20260506180000 7 0 0.0 0.0 0.00 0.00 0.00 68 1016.0
20260506175000 8 0 0.0 0.0 0.00 0.00 0.00 66 1016.0
20260506174000 8 0 0.0 0.0 0.00 0.00 0.00 64 1016.0
20260506173000 9 0 0.0 0.0 0.00 0.00 0.00 64 1016.0
20260506172000 9 0 0.0 0.0 0.00 0.00 0.00 62 1016.0
20260506171000 10 0 0.0 0.0 0.00 0.00 0.00 60 1016.0
20260506170000 10 0 0.0 0.0 0.00 0.00 0.00 58 1016.0
20260506165000 11 0 0.0 0.0 0.00 0.00 0.00 57 1016.0
20260506164000 11 0 0.0 0.0 0.00 0.00 0.00 56 1016.0
20260506163000 11 0 0.0 0.0 0.00 0.00 0.00 55 1016.0
20260506162000 12 198 1.6 6.4 0.00 0.00 0.00 54 1016.0
20260506161000 12 193 0.0 8.0 0.00 0.00 0.00 54 1016.0
20260506160000 12 169 3.2 9.7 0.00 0.00 0.00 53 1016.0
20260506155000 12 176 3.2 8.0 0.00 0.00 0.00 53 1016.0
20260506154000 12 197 0.0 8.0 0.00 0.00 0.00 54 1016.0
20260506153000 13 193 4.8 8.0 0.00 0.00 0.00 55 1016.0
20260506152000 13 163 4.8 11.3 0.00 0.00 0.00 52 1016.0
20260506151000 13 159 4.8 14.5 0.00 0.00 0.00 54 1016.0
20260506150000 13 208 3.2 12.9 0.00 0.00 0.00 52 1016.0
20260506145000 13 176 3.2 11.3 0.00 0.00 0.00 52 1016.0
20260506144000 13 191 4.8 11.3 0.00 0.00 0.00 51 1016.0
20260506143000 13 133 4.8 12.9 0.00 0.00 0.00 50 1016.0
20260506142000 14 196 8.0 17.7 0.00 0.00 0.00 49 1016.0
20260506141000 14 168 4.8 17.7 0.00 0.00 0.00 49 1016.0
20260506140000 15 148 4.8 16.1 0.00 0.00 0.00 49 1017.0
20260506135000 15 185 3.2 8.0 0.00 0.00 0.00 51 1017.0
20260506134000 14 179 3.2 11.3 0.00 0.00 0.00 52 1017.0
20260506133000 14 201 4.8 12.9 0.00 0.00 0.00 52 1017.0
20260506132000 15 123 4.8 14.5 0.00 0.00 0.00 49 1017.0
20260506131000 14 186 3.2 12.9 0.00 0.00 0.00 52 1017.0
20260506130000 13 225 4.8 12.9 0.00 0.00 0.00 52 1017.0
20260506125000 13 193 8.0 14.5 0.00 0.00 0.00 54 1017.0
20260506124000 15 228 6.4 9.7 0.00 0.00 0.00 51 1017.0
20260506123000 14 133 8.0 11.3 0.00 0.00 0.00 49 1017.0
20260506122000 15 166 6.4 16.1 0.00 0.00 0.00 51 1017.0
20260506121000 15 88 4.8 12.9 0.00 0.00 0.00 50 1017.0
20260506120000 14 200 8.0 17.7 0.00 0.00 0.00 52 1017.0
20260506115000 15 117 8.0 19.3 0.00 0.00 0.00 50 1017.0
20260506114623 15 198 4.8 19.3 0.00 0.00 0.00 54 1017.0
20260506114000 13 190 4.8 14.5 0.00 0.00 0.00 53 1017.0
20260506113000 13 192 8.0 12.9 0.00 0.00 0.00 54 1017.0
20260506112000 13 143 3.2 11.3 0.00 0.00 0.00 55 1017.0
20260506111000 13 160 4.8 17.7 0.00 0.00 0.00 51 1017.0
20260506110000 13 186 3.2 14.5 0.00 0.00 0.00 57 1017.0
20260506105000 12 192 1.6 11.3 0.00 0.00 0.00 57 1017.0
20260506104000 13 236 4.8 9.7 0.00 0.00 0.00 58 1017.0
20260506103000 12 201 6.4 17.7 0.00 0.00 0.00 55 1017.0
20260506102000 12 190 1.6 14.5 0.00 0.00 0.00 56 1017.0
20260506101000 13 231 6.4 12.9 0.00 0.00 0.00 54 1017.0
20260506100000 13 190 4.8 14.5 0.00 0.00 0.00 57 1017.0
20260506095000 13 219 4.8 8.0 0.00 0.00 0.00 57 1017.0
20260506094000 12 179 6.4 9.7 0.00 0.00 0.00 58 1017.0
20260506093000 12 228 4.8 9.7 0.00 0.00 0.00 59 1017.0
20260506092000 12 234 3.2 9.7 0.00 0.00 0.00 56 1017.0
20260506091000 12 183 4.8 11.3 0.00 0.00 0.00 61 1017.0
20260506090000 12 245 6.4 8.0 0.00 0.00 0.00 61 1017.0
20260506085000 11 146 4.8 12.9 0.00 0.00 0.00 61 1017.0
20260506084000 12 206 3.2 11.3 0.00 0.00 0.00 59 1017.0
20260506083000 12 232 6.4 14.5 0.00 0.00 0.00 62 1017.0
20260506082000 12 174 6.4 11.3 0.00 0.00 0.00 62 1017.0
20260506081000 11 199 3.2 11.3 0.00 0.00 0.00 63 1017.0
20260506073000 11 220 1.6 8.0 0.00 0.00 0.00 61 1017.0
20260506072000 12 176 1.6 9.7 0.00 0.00 0.00 63 1017.0
20260506071000 11 186 4.8 9.7 0.00 0.00 0.00 65 1017.0
20260506062000 8 216 4.8 6.4 0.00 0.00 0.00 77 1016.0
20260506061000 7 190 1.6 4.8 0.00 0.00 0.00 78 1016.0
20260506051000 7 177 1.6 4.8 0.00 0.00 0.00 82 1012.0
20260506045000 6 232 0.0 4.8 0.00 0.00 0.00 84 1012.0
20260506044000 6 161 1.6 8.0 0.00 0.00 0.00 84 1012.0
20260506043000 6 170 3.2 8.0 0.00 0.00 0.00 84 1012.0
20260506042000 6 137 3.2 6.4 0.00 0.00 0.00 85 1012.0
20260506041000 6 164 3.2 6.4 0.00 0.00 0.00 85 1012.0
20260506040002 6 236 0.0 3.2 0.00 0.00 0.00 86 1012.0
20260506035000 5 220 0.0 1.6 0.00 0.00 0.00 86 1012.0
20260506034000 5 245 0.0 3.2 0.00 0.00 0.00 87 1012.0
20260506033000 5 176 0.0 3.2 0.00 0.00 0.00 87 1012.0
20260506032000 5 215 3.2 4.8 0.00 0.00 0.00 87 1012.0
20260506031000 5 143 3.2 9.7 0.00 0.00 0.00 88 1012.0
20260506030000 5 187 1.6 4.8 0.00 0.00 0.00 88 1012.0
20260506025000 5 182 1.6 4.8 0.00 0.00 0.00 87 1012.0
20260506024000 4 216 0.0 0.0 0.00 0.00 0.00 87 1012.0
20260506023000 4 190 0.0 3.2 0.00 0.00 0.00 87 1012.0
20260506022000 5 161 0.0 1.6 0.00 0.00 0.00 87 1012.0